Dades meteomassalio
Diari Summary for Juny 13, 2017 Units:  Metric    English   Both
« Previous Day
Next Day »
Diari Semanal Mensual Anual Personalitzat
  Maxima: Minima: Mijana:
Temperatura: 34.9 °C 15.4 °C 26.8 °C
Rosada: 15.9 °C 8.7 °C 12.9 °C
Humitat: 80 % 25 % 46 %
Velocitat del vent: 29.6 km/h 0.0 km/h 9.5 km/h
Racha vent: 29.6 km/h - -
Vent:- - ESE
Pressio: 1013.8 hPa 1010.0 hPa -
Pluja: 0.0 mm    
Historical Graphs
 
 
Tabular Data for Juny 13, 2017
Time Temperature Dew Point Pressure Wind Wind Speed Wind Gust Humidity Rainfall Rate (Hourly) solar Conditions
00:03 24.4 °C 11.7 °C 1013.8 hPa Calm     45 % 0.0 mm 0.0 W/m2 CLR
00:08 24.4 °C 11.7 °C 1013.8 hPa Calm     45 % 0.0 mm 0.0 W/m2 CLR
00:13 24.2 °C 11.6 °C 1013.8 hPa Calm     45 % 0.0 mm 0.0 W/m2 CLR
00:18 24.1 °C 12.4 °C 1013.8 hPa Calm     48 % 0.0 mm 0.0 W/m2 CLR
00:23 23.6 °C 12.6 °C 1013.8 hPa Calm     50 % 0.0 mm 0.0 W/m2 CLR
00:28 23.3 °C 12.6 °C 1013.8 hPa Calm     51 % 0.0 mm 0.0 W/m2 CLR
00:33 23.0 °C 12.3 °C 1013.8 hPa Calm     51 % 0.0 mm 0.0 W/m2 CLR
00:38 22.8 °C 12.7 °C 1013.8 hPa Calm     53 % 0.0 mm 0.0 W/m2 CLR
00:43 22.4 °C 12.7 °C 1013.8 hPa Calm     54 % 0.0 mm 0.0 W/m2 CLR
00:48 22.2 °C 12.7 °C 1013.8 hPa Calm     55 % 0.0 mm 0.0 W/m2 CLR
00:53 21.9 °C 12.7 °C 1013.8 hPa Calm     56 % 0.0 mm 0.0 W/m2 CLR
00:58 21.7 °C 12.8 °C 1013.8 hPa Calm     57 % 0.0 mm 0.0 W/m2 CLR
01:03 21.5 °C 12.6 °C 1013.8 hPa Calm     57 % 0.0 mm 0.0 W/m2 CLR
01:08 21.3 °C 12.7 °C 1013.8 hPa Calm     58 % 0.0 mm 0.0 W/m2 CLR
01:13 21.1 °C 12.7 °C 1013.4 hPa Calm     59 % 0.0 mm 0.0 W/m2 CLR
01:18 20.8 °C 12.3 °C 1013.4 hPa Calm     58 % 0.0 mm 0.0 W/m2 CLR
01:23 20.7 °C 12.4 °C 1013.4 hPa Calm     59 % 0.0 mm 0.0 W/m2 CLR
01:28 20.5 °C 12.2 °C 1013.4 hPa Calm     59 % 0.0 mm 0.0 W/m2 CLR
01:33 20.3 °C 12.3 °C 1013.4 hPa Calm     60 % 0.0 mm 0.0 W/m2 CLR
01:38 20.3 °C 12.3 °C 1013.4 hPa Calm     60 % 0.0 mm 0.0 W/m2 CLR
01:43 20.2 °C 12.4 °C 1013.4 hPa Calm     61 % 0.0 mm 0.0 W/m2 CLR
01:48 20.0 °C 12.5 °C 1013.4 hPa Calm     62 % 0.0 mm 0.0 W/m2 CLR
01:53 19.8 °C 12.6 °C 1013.1 hPa Calm     63 % 0.0 mm 0.0 W/m2 CLR
01:58 19.6 °C 12.4 °C 1013.1 hPa Calm     63 % 0.0 mm 0.0 W/m2 CLR
02:03 19.5 °C 12.5 °C 1013.1 hPa Calm     64 % 0.0 mm 0.0 W/m2 CLR
02:08 19.3 °C 12.3 °C 1013.1 hPa Calm     64 % 0.0 mm 0.0 W/m2 CLR
02:13 19.2 °C 12.5 °C 1013.1 hPa Calm     65 % 0.0 mm 0.0 W/m2 CLR
02:18 19.1 °C 12.4 °C 1013.1 hPa Calm     65 % 0.0 mm 0.0 W/m2 CLR
02:23 19.0 °C 12.5 °C 1013.1 hPa Calm     66 % 0.0 mm 0.0 W/m2 CLR
02:28 18.8 °C 12.6 °C 1013.1 hPa Calm     67 % 0.0 mm 0.0 W/m2 CLR
02:33 18.7 °C 12.4 °C 1013.1 hPa Calm     67 % 0.0 mm 0.0 W/m2 CLR
02:38 18.6 °C 12.3 °C 1013.1 hPa Calm     67 % 0.0 mm 0.0 W/m2 CLR
02:43 18.5 °C 12.5 °C 1013.1 hPa Calm     68 % 0.0 mm 0.0 W/m2 CLR
02:48 18.4 °C 12.2 °C 1013.1 hPa Calm     67 % 0.0 mm 0.0 W/m2 CLR
02:53 18.3 °C 12.1 °C 1013.1 hPa Calm     67 % 0.0 mm 0.0 W/m2 CLR
02:58 18.2 °C 12.0 °C 1013.1 hPa Calm     67 % 0.0 mm 0.0 W/m2 CLR
03:03 18.1 °C 12.1 °C 1013.1 hPa Calm     68 % 0.0 mm 0.0 W/m2 CLR
03:08 18.0 °C 12.2 °C 1013.1 hPa Calm     69 % 0.0 mm 0.0 W/m2 CLR
03:13 17.8 °C 11.8 °C 1013.1 hPa Calm     68 % 0.0 mm 0.0 W/m2 CLR
03:18 17.7 °C 11.9 °C 1013.1 hPa Calm     69 % 0.0 mm 0.0 W/m2 CLR
03:23 17.7 °C 11.9 °C 1013.1 hPa Calm     69 % 0.0 mm 0.0 W/m2 CLR
03:28 17.7 °C 12.2 °C 1013.1 hPa Calm     70 % 0.0 mm 0.0 W/m2 CLR
03:33 17.7 °C 12.1 °C 1013.1 hPa Calm     70 % 0.0 mm 0.0 W/m2 CLR
03:38 17.7 °C 12.1 °C 1013.1 hPa Calm     70 % 0.0 mm 0.0 W/m2 CLR
03:43 17.6 °C 12.0 °C 1013.1 hPa Calm     70 % 0.0 mm 0.0 W/m2 CLR
03:48 17.4 °C 11.8 °C 1012.8 hPa Calm     70 % 0.0 mm 0.0 W/m2 CLR
03:50 17.4 °C 11.8 °C 1012.8 hPa Calm     70 % 0.0 mm 0.0 W/m2 CLR
03:54 17.3 °C 11.9 °C 1013.1 hPa Calm     71 % 0.0 mm 0.0 W/m2 CLR
04:00 17.1 °C 11.8 °C 1013.1 hPa Calm     71 % 0.0 mm 0.0 W/m2 CLR
04:05 17.1 °C 11.9 °C 1013.1 hPa Calm     72 % 0.0 mm 0.0 W/m2 CLR
04:15 16.8 °C 11.9 °C 1012.8 hPa Calm     73 % 0.0 mm 0.0 W/m2 CLR
04:20 16.8 °C 11.9 °C 1012.8 hPa Calm     73 % 0.0 mm 0.0 W/m2 CLR
04:25 16.7 °C 11.8 °C 1012.8 hPa Calm     73 % 0.0 mm 0.0 W/m2 CLR
04:30 16.6 °C 11.9 °C 1012.8 hPa Calm     74 % 0.0 mm 0.0 W/m2 CLR
04:35 16.6 °C 11.9 °C 1012.8 hPa Calm     74 % 0.0 mm 0.0 W/m2 CLR
04:40 16.4 °C 12.0 °C 1012.8 hPa Calm     75 % 0.0 mm 0.0 W/m2 CLR
04:45 16.3 °C 11.9 °C 1012.8 hPa Calm     75 % 0.0 mm 0.0 W/m2 CLR
04:50 16.3 °C 11.8 °C 1012.8 hPa Calm     75 % 0.0 mm 0.0 W/m2 CLR
04:56 16.2 °C 12.0 °C 1013.1 hPa Calm     76 % 0.0 mm 0.0 W/m2 CLR
05:01 16.2 °C 12.0 °C 1013.1 hPa Calm     76 % 0.0 mm 0.0 W/m2 CLR
05:06 16.2 °C 11.9 °C 1013.1 hPa Calm     76 % 0.0 mm 0.0 W/m2 CLR
05:11 16.2 °C 11.9 °C 1013.1 hPa Calm     76 % 0.0 mm 0.0 W/m2 CLR
05:16 16.1 °C 11.7 °C 1013.1 hPa Calm     75 % 0.0 mm 0.0 W/m2 CLR
05:21 16.1 °C 11.8 °C 1012.8 hPa Calm     76 % 0.0 mm 0.0 W/m2 CLR
05:26 15.9 °C 11.7 °C 1013.1 hPa Calm     76 % 0.0 mm 0.0 W/m2 CLR
05:31 16.0 °C 11.8 °C 1013.1 hPa Calm     76 % 0.0 mm 0.0 W/m2 CLR
05:36 16.0 °C 11.8 °C 1013.1 hPa Calm     76 % 0.0 mm 0.0 W/m2 CLR
05:46 15.8 °C 11.8 °C 1013.1 hPa Calm     77 % 0.0 mm 0.0 W/m2 CLR
05:51 15.9 °C 11.8 °C 1013.1 hPa Calm     77 % 0.0 mm 0.0 W/m2 CLR
05:56 15.8 °C 11.8 °C 1013.1 hPa Calm     77 % 0.0 mm 0.0 W/m2 CLR
06:01 15.7 °C 11.7 °C 1013.1 hPa Calm     77 % 0.0 mm 0.0 W/m2 CLR
06:06 15.6 °C 11.6 °C 1013.1 hPa Calm     77 % 0.0 mm 0.0 W/m2 CLR
06:11 15.6 °C 11.7 °C 1013.1 hPa Calm     78 % 0.0 mm 0.0 W/m2 CLR
06:16 15.6 °C 11.7 °C 1013.1 hPa Calm     78 % 0.0 mm 0.0 W/m2 OVC
06:21 15.5 °C 11.9 °C 1013.1 hPa Calm     79 % 0.0 mm 0.0 W/m2 OVC
06:26 15.4 °C 11.8 °C 1013.1 hPa Calm     79 % 0.0 mm 0.0 W/m2 OVC
06:31 15.4 °C 11.8 °C 1013.1 hPa Calm     79 % 0.0 mm 5.0 W/m2 OVC
06:36 15.4 °C 11.8 °C 1013.1 hPa Calm     79 % 0.0 mm 7.0 W/m2 BKN
06:41 15.4 °C 11.8 °C 1013.1 hPa Calm     79 % 0.0 mm 9.0 W/m2 BKN
06:46 15.4 °C 11.8 °C 1013.1 hPa Calm     79 % 0.0 mm 11.0 W/m2 BKN
06:51 15.4 °C 11.8 °C 1013.4 hPa Calm     79 % 0.0 mm 12.0 W/m2 BKN
06:56 15.4 °C 11.8 °C 1013.1 hPa Calm     79 % 0.0 mm 14.0 W/m2 BKN
07:01 15.4 °C 11.9 °C 1013.4 hPa Calm     80 % 0.0 mm 18.0 W/m2 BKN
07:06 15.4 °C 11.9 °C 1013.4 hPa Calm     80 % 0.0 mm 26.0 W/m2 BKN
07:11 15.4 °C 12.0 °C 1013.4 hPa Calm     80 % 0.0 mm 40.0 W/m2 BKN
07:16 15.6 °C 12.2 °C 1013.4 hPa Calm     80 % 0.0 mm 49.0 W/m2 SCT
07:21 15.9 °C 12.4 °C 1013.4 hPa Calm     80 % 0.0 mm 62.0 W/m2 SCT
07:26 16.2 °C 12.5 °C 1013.4 hPa Calm     79 % 0.0 mm 74.0 W/m2 FEW
07:31 16.4 °C 12.6 °C 1013.4 hPa Calm     78 % 0.0 mm 90.0 W/m2 FEW
07:36 16.8 °C 13.0 °C 1013.4 hPa Calm     78 % 0.0 mm 104.0 W/m2 CLR
07:41 17.3 °C 13.0 °C 1013.4 hPa Calm     76 % 0.0 mm 120.0 W/m2 CLR
07:46 17.6 °C 12.9 °C 1013.4 hPa Calm     74 % 0.0 mm 135.0 W/m2 CLR
07:51 18.1 °C 12.9 °C 1013.8 hPa Calm     72 % 0.0 mm 151.0 W/m2 CLR
07:56 18.4 °C 13.1 °C 1013.4 hPa Calm     71 % 0.0 mm 172.0 W/m2 CLR
08:01 18.9 °C 13.5 °C 1013.4 hPa Calm     71 % 0.0 mm 188.0 W/m2 CLR
08:06 19.5 °C 13.7 °C 1013.4 hPa Calm     69 % 0.0 mm 206.0 W/m2 CLR
08:11 20.1 °C 13.8 °C 1013.4 hPa Calm     67 % 0.0 mm 221.0 W/m2 CLR
08:16 20.8 °C 14.2 °C 1013.4 hPa Calm     66 % 0.0 mm 239.0 W/m2 CLR
08:21 21.4 °C 13.8 °C 1013.4 hPa Calm     62 % 0.0 mm 255.0 W/m2 CLR
08:26 21.6 °C 14.3 °C 1013.4 hPa Calm     63 % 0.0 mm 269.0 W/m2 CLR
08:31 22.0 °C 14.4 °C 1013.8 hPa Calm     62 % 0.0 mm 283.0 W/m2 CLR
08:36 22.5 °C 14.3 °C 1013.4 hPa Calm     60 % 0.0 mm 301.0 W/m2 CLR
08:41 23.1 °C 14.9 °C 1013.4 hPa Calm     60 % 0.0 mm 315.0 W/m2 CLR
08:46 23.5 °C 15.0 °C 1013.8 hPa Calm     59 % 0.0 mm 330.0 W/m2 CLR
08:51 23.9 °C 14.6 °C 1013.4 hPa Calm     56 % 0.0 mm 346.0 W/m2 CLR
08:56 24.0 °C 14.7 °C 1013.4 hPa Calm     56 % 0.0 mm 364.0 W/m2 CLR
09:01 23.9 °C 14.3 °C 1013.4 hPa Calm     55 % 0.0 mm 378.0 W/m2 CLR
09:06 24.2 °C 14.8 °C 1013.4 hPa Calm     56 % 0.0 mm 392.0 W/m2 CLR
09:11 24.5 °C 14.9 °C 1013.4 hPa Calm     55 % 0.0 mm 408.0 W/m2 CLR
09:16 24.9 °C 14.7 °C 1013.4 hPa Calm     53 % 0.0 mm 424.0 W/m2 CLR
09:21 25.4 °C 14.5 °C 1013.4 hPa Calm     51 % 0.0 mm 441.0 W/m2 CLR
09:26 25.7 °C 14.5 °C 1013.4 hPa Calm     50 % 0.0 mm 455.0 W/m2 CLR
09:31 26.1 °C 14.2 °C 1013.4 hPa Calm     48 % 0.0 mm 469.0 W/m2 CLR
09:36 26.6 °C 14.3 °C 1013.4 hPa Calm     47 % 0.0 mm 485.0 W/m2 CLR
09:41 26.7 °C 14.2 °C 1013.4 hPa Calm     46 % 0.0 mm 501.0 W/m2 CLR
09:46 27.1 °C 14.4 °C 1013.4 hPa ENE 7.4 km/h 7.4 km/h 46 % 0.0 mm 517.0 W/m2 CLR
09:51 27.4 °C 14.1 °C 1013.4 hPa ENE 1.9 km/h   44 % 0.0 mm 531.0 W/m2 CLR
09:56 27.7 °C 14.0 °C 1013.4 hPa East 9.3 km/h 9.3 km/h 43 % 0.0 mm 545.0 W/m2 CLR
10:01 27.9 °C 13.8 °C 1013.1 hPa East 9.3 km/h 9.3 km/h 42 % 0.0 mm 559.0 W/m2 CLR
10:06 28.1 °C 14.3 °C 1013.1 hPa ENE 5.6 km/h 5.6 km/h 43 % 0.0 mm 575.0 W/m2 CLR
10:11 28.3 °C 14.2 °C 1013.1 hPa Calm     42 % 0.0 mm 587.0 W/m2 CLR
10:16 28.6 °C 14.8 °C 1013.1 hPa Calm     43 % 0.0 mm 601.0 W/m2 CLR
10:21 28.9 °C 14.3 °C 1013.1 hPa ENE 11.1 km/h 11.1 km/h 41 % 0.0 mm 615.0 W/m2 CLR
10:26 29.1 °C 14.1 °C 1013.1 hPa ENE 5.6 km/h   40 % 0.0 mm 631.0 W/m2 CLR
10:27 29.1 °C 14.1 °C 1013.1 hPa Calm     40 % 0.0 mm 631.0 W/m2 CLR
10:32 29.4 °C 13.2 °C 1012.8 hPa East 5.6 km/h 5.6 km/h 37 % 0.0 mm 645.0 W/m2 CLR
10:37 29.4 °C 12.8 °C 1012.8 hPa East 11.1 km/h 11.1 km/h 36 % 0.0 mm 657.0 W/m2 CLR
10:42 29.4 °C 12.8 °C 1012.8 hPa Calm     36 % 0.0 mm 673.0 W/m2 CLR
10:47 29.8 °C 13.2 °C 1012.8 hPa ENE 9.3 km/h 9.3 km/h 36 % 0.0 mm 684.0 W/m2 CLR
10:52 30.1 °C 12.9 °C 1012.8 hPa ESE 5.6 km/h 5.6 km/h 35 % 0.0 mm 696.0 W/m2 CLR
10:57 30.1 °C 12.9 °C 1012.8 hPa ENE 5.6 km/h 5.6 km/h 35 % 0.0 mm 708.0 W/m2 CLR
11:02 30.2 °C 13.5 °C 1012.8 hPa ENE 3.7 km/h 3.7 km/h 36 % 0.0 mm 721.0 W/m2 CLR
11:07 30.3 °C 13.2 °C 1012.8 hPa ENE 3.7 km/h 3.7 km/h 35 % 0.0 mm 731.0 W/m2 CLR
11:12 30.4 °C 12.8 °C 1012.8 hPa Calm     34 % 0.0 mm 744.0 W/m2 CLR
11:17 30.6 °C 12.9 °C 1012.8 hPa East 7.4 km/h 7.4 km/h 34 % 0.0 mm 754.0 W/m2 CLR
11:22 30.8 °C 13.6 °C 1012.4 hPa NNE 3.2 km/h 3.2 km/h 35 % 0.0 mm 766.0 W/m2 CLR
11:27 31.1 °C 13.8 °C 1012.4 hPa East 9.7 km/h 9.7 km/h 35 % 0.0 mm 777.0 W/m2 CLR
11:32 31.1 °C 14.3 °C 1012.4 hPa ENE 8.0 km/h 8.0 km/h 36 % 0.0 mm 786.0 W/m2 CLR
11:37 31.2 °C 13.9 °C 1012.4 hPa ENE 11.1 km/h 11.1 km/h 35 % 0.0 mm 798.0 W/m2 CLR
11:42 31.4 °C 14.1 °C 1012.4 hPa East 9.3 km/h 9.3 km/h 35 % 0.0 mm 805.0 W/m2 CLR
11:47 31.3 °C 14.1 °C 1012.4 hPa East 11.3 km/h 11.3 km/h 35 % 0.0 mm 817.0 W/m2 CLR
11:52 31.3 °C 14.1 °C 1012.1 hPa SSE 13.0 km/h 13.0 km/h 35 % 0.0 mm 826.0 W/m2 CLR
11:57 31.6 °C 13.3 °C 1012.4 hPa East 18.5 km/h 18.5 km/h 33 % 0.0 mm 831.0 W/m2 CLR
12:02 31.7 °C 13.0 °C 1012.1 hPa SE 14.8 km/h 14.8 km/h 32 % 0.0 mm 844.0 W/m2 CLR
12:07 31.8 °C 13.1 °C 1012.1 hPa ESE 18.5 km/h 18.5 km/h 32 % 0.0 mm 851.0 W/m2 CLR
12:12 31.9 °C 13.6 °C 1012.1 hPa ENE 14.8 km/h 14.8 km/h 33 % 0.0 mm 860.0 W/m2 CLR
12:17 32.1 °C 13.3 °C 1012.1 hPa ESE 16.7 km/h 16.7 km/h 32 % 0.0 mm 867.0 W/m2 CLR
12:22 32.3 °C 13.0 °C 1012.1 hPa East 18.5 km/h 18.5 km/h 31 % 0.0 mm 875.0 W/m2 CLR
12:27 32.3 °C 13.1 °C 1012.1 hPa ENE 11.1 km/h 11.1 km/h 31 % 0.0 mm 881.0 W/m2 CLR
12:32 32.6 °C 13.2 °C 1012.1 hPa NE 9.7 km/h 9.7 km/h 31 % 0.0 mm 882.0 W/m2 CLR
12:37 32.8 °C 13.4 °C 1012.1 hPa NE 18.5 km/h 18.5 km/h 31 % 0.0 mm 891.0 W/m2 CLR
12:42 33.1 °C 13.2 °C 1012.1 hPa East 11.1 km/h 11.1 km/h 30 % 0.0 mm 896.0 W/m2 CLR
12:47 33.2 °C 12.8 °C 1012.1 hPa East 12.9 km/h 12.9 km/h 29 % 0.0 mm 900.0 W/m2 CLR
12:52 33.1 °C 12.7 °C 1012.1 hPa East 13.0 km/h 13.0 km/h 29 % 0.0 mm 902.0 W/m2 CLR
12:57 33.4 °C 12.4 °C 1012.1 hPa SSE 9.7 km/h 9.7 km/h 28 % 0.0 mm 909.0 W/m2 CLR
13:02 33.6 °C 12.6 °C 1012.1 hPa SSE 9.7 km/h 9.7 km/h 28 % 0.0 mm 919.0 W/m2 CLR
13:07 33.9 °C 11.1 °C 1011.7 hPa SE 7.4 km/h   25 % 0.0 mm 925.0 W/m2 CLR
13:12 34.1 °C 12.4 °C 1011.7 hPa SE 8.0 km/h 8.0 km/h 27 % 0.0 mm 921.0 W/m2 CLR
13:17 33.9 °C 11.7 °C 1011.7 hPa ESE 14.8 km/h 14.8 km/h 26 % 0.0 mm 921.0 W/m2 CLR
13:22 34.1 °C 12.9 °C 1011.7 hPa ESE 8.0 km/h 8.0 km/h 28 % 0.0 mm 926.0 W/m2 CLR
13:27 33.8 °C 12.2 °C 1011.7 hPa NE 9.3 km/h 9.3 km/h 27 % 0.0 mm 928.0 W/m2 CLR
13:32 33.9 °C 12.3 °C 1011.7 hPa ESE 16.7 km/h 16.7 km/h 27 % 0.0 mm 932.0 W/m2 CLR
13:37 34.2 °C 12.5 °C 1011.7 hPa East 14.8 km/h 14.8 km/h 27 % 0.0 mm 932.0 W/m2 CLR
13:42 34.4 °C 12.2 °C 1011.7 hPa ESE 18.5 km/h 18.5 km/h 26 % 0.0 mm 937.0 W/m2 CLR
13:47 34.3 °C 12.0 °C 1011.4 hPa SE 20.4 km/h 20.4 km/h 26 % 0.0 mm 932.0 W/m2 CLR
13:52 34.4 °C 12.2 °C 1011.4 hPa SSE 18.5 km/h 18.5 km/h 26 % 0.0 mm 935.0 W/m2 CLR
13:57 34.4 °C 12.7 °C 1011.4 hPa East 22.2 km/h 22.2 km/h 27 % 0.0 mm 933.0 W/m2 CLR
14:02 34.2 °C 12.6 °C 1011.4 hPa SE 24.1 km/h 24.1 km/h 27 % 0.0 mm 935.0 W/m2 CLR
14:07 33.9 °C 12.9 °C 1011.4 hPa ENE 16.7 km/h 16.7 km/h 28 % 0.0 mm 932.0 W/m2 CLR
14:12 34.2 °C 12.6 °C 1011.4 hPa SSE 20.4 km/h 20.4 km/h 27 % 0.0 mm 937.0 W/m2 CLR
14:17 34.1 °C 13.0 °C 1011.4 hPa SSE 20.4 km/h 20.4 km/h 28 % 0.0 mm 932.0 W/m2 CLR
14:22 34.1 °C 12.9 °C 1011.4 hPa East 17.7 km/h 17.7 km/h 28 % 0.0 mm 933.0 W/m2 CLR
14:27 34.2 °C 13.1 °C 1011.4 hPa East 24.1 km/h 24.1 km/h 28 % 0.0 mm 932.0 W/m2 CLR
14:32 34.2 °C 13.6 °C 1011.4 hPa ESE 16.7 km/h 16.7 km/h 29 % 0.0 mm 926.0 W/m2 CLR
14:37 34.3 °C 13.7 °C 1011.4 hPa SE 22.2 km/h 22.2 km/h 29 % 0.0 mm 923.0 W/m2 CLR
14:42 34.2 °C 14.2 °C 1011.1 hPa ESE 14.8 km/h 14.8 km/h 30 % 0.0 mm 921.0 W/m2 CLR
14:47 34.4 °C 13.8 °C 1011.1 hPa East 24.1 km/h 24.1 km/h 29 % 0.0 mm 916.0 W/m2 CLR
14:52 34.4 °C 13.8 °C 1011.1 hPa ESE 16.7 km/h 16.7 km/h 29 % 0.0 mm 911.0 W/m2 CLR
14:57 34.6 °C 14.0 °C 1011.1 hPa ESE 14.8 km/h 14.8 km/h 29 % 0.0 mm 911.0 W/m2 CLR
15:02 34.4 °C 13.8 °C 1011.1 hPa ESE 24.1 km/h 24.1 km/h 29 % 0.0 mm 900.0 W/m2 CLR
15:07 34.3 °C 14.2 °C 1011.1 hPa ESE 24.1 km/h 24.1 km/h 30 % 0.0 mm 896.0 W/m2 CLR
15:12 34.3 °C 13.7 °C 1011.1 hPa ESE 22.2 km/h 22.2 km/h 29 % 0.0 mm 889.0 W/m2 CLR
15:17 34.4 °C 14.3 °C 1011.1 hPa SE 18.5 km/h 18.5 km/h 30 % 0.0 mm 886.0 W/m2 CLR
15:22 34.3 °C 13.7 °C 1010.7 hPa SE 18.5 km/h 18.5 km/h 29 % 0.0 mm 882.0 W/m2 CLR
15:28 34.2 °C 13.7 °C 1010.7 hPa ESE 24.1 km/h 24.1 km/h 29 % 0.0 mm 875.0 W/m2 CLR
15:33 34.3 °C 13.7 °C 1010.7 hPa ESE 16.7 km/h 16.7 km/h 29 % 0.0 mm 870.0 W/m2 CLR
15:38 34.4 °C 13.8 °C 1010.7 hPa East 22.2 km/h 22.2 km/h 29 % 0.0 mm 863.0 W/m2 CLR
15:43 34.7 °C 14.1 °C 1010.7 hPa SE 16.7 km/h 16.7 km/h 29 % 0.0 mm 856.0 W/m2 CLR
15:48 34.9 °C 13.7 °C 1010.7 hPa ESE 24.1 km/h 24.1 km/h 28 % 0.0 mm 847.0 W/m2 CLR
15:53 34.8 °C 14.1 °C 1010.7 hPa SE 9.7 km/h 9.7 km/h 29 % 0.0 mm 838.0 W/m2 CLR
15:58 34.8 °C 13.6 °C 1010.7 hPa SE 16.7 km/h 16.7 km/h 28 % 0.0 mm 831.0 W/m2 CLR
16:03 34.7 °C 14.1 °C 1010.4 hPa East 19.3 km/h 19.3 km/h 29 % 0.0 mm 823.0 W/m2 CLR
16:08 34.7 °C 14.0 °C 1010.4 hPa East 14.8 km/h 14.8 km/h 29 % 0.0 mm 809.0 W/m2 CLR
16:13 34.7 °C 13.6 °C 1010.4 hPa SE 25.9 km/h 25.9 km/h 28 % 0.0 mm 802.0 W/m2 CLR
16:18 34.8 °C 14.2 °C 1010.4 hPa ENE 25.9 km/h 25.9 km/h 29 % 0.0 mm 793.0 W/m2 CLR
16:23 34.8 °C 14.2 °C 1010.4 hPa SE 27.8 km/h 27.8 km/h 29 % 0.0 mm 782.0 W/m2 CLR
16:28 34.4 °C 14.3 °C 1010.4 hPa ENE 29.6 km/h 29.6 km/h 30 % 0.0 mm 770.0 W/m2 CLR
16:33 34.4 °C 14.9 °C 1010.4 hPa ESE 27.8 km/h 27.8 km/h 31 % 0.0 mm 761.0 W/m2 CLR
16:38 34.4 °C 14.3 °C 1010.0 hPa East 20.4 km/h 20.4 km/h 30 % 0.0 mm 752.0 W/m2 CLR
16:43 34.4 °C 14.9 °C 1010.4 hPa ESE 25.7 km/h 25.7 km/h 31 % 0.0 mm 745.0 W/m2 CLR
16:44 34.4 °C 14.3 °C 1010.4 hPa ESE 20.9 km/h 21.6 km/h 30 % 0.0 mm 742.0 W/m2 CLR
16:49 34.4 °C 14.3 °C 1010.4 hPa ENE 22.2 km/h 22.2 km/h 30 % 0.0 mm 729.0 W/m2 CLR
16:54 34.3 °C 14.3 °C 1010.0 hPa NE 20.4 km/h 20.4 km/h 30 % 0.0 mm 717.0 W/m2 CLR
17:04 34.5 °C 14.4 °C 1010.0 hPa ESE 25.9 km/h 25.9 km/h 30 % 0.0 mm 694.0 W/m2 CLR
17:09 34.4 °C 14.3 °C 1010.0 hPa ENE 20.4 km/h 20.4 km/h 30 % 0.0 mm 684.0 W/m2 CLR
17:14 34.4 °C 14.9 °C 1010.0 hPa East 18.5 km/h 18.5 km/h 31 % 0.0 mm 670.0 W/m2 CLR
17:19 34.5 °C 14.4 °C 1010.0 hPa ESE 27.8 km/h 27.8 km/h 30 % 0.0 mm 657.0 W/m2 CLR
17:24 34.3 °C 14.3 °C 1010.4 hPa ESE 22.2 km/h 22.2 km/h 30 % 0.0 mm 645.0 W/m2 CLR
17:29 34.4 °C 14.3 °C 1010.4 hPa East 20.9 km/h 20.9 km/h 30 % 0.0 mm 633.0 W/m2 CLR
17:34 34.3 °C 14.8 °C 1010.0 hPa ESE 24.1 km/h 24.1 km/h 31 % 0.0 mm 615.0 W/m2 CLR
17:39 34.4 °C 14.3 °C 1010.0 hPa SE 16.7 km/h 16.7 km/h 30 % 0.0 mm 603.0 W/m2 CLR
17:44 34.3 °C 14.3 °C 1010.0 hPa SE 22.2 km/h 22.2 km/h 30 % 0.0 mm 589.0 W/m2 CLR
17:49 34.4 °C 14.3 °C 1010.0 hPa ESE 22.2 km/h 22.2 km/h 30 % 0.0 mm 571.0 W/m2 CLR
17:54 34.2 °C 13.7 °C 1010.0 hPa SE 22.2 km/h 22.2 km/h 29 % 0.0 mm 557.0 W/m2 CLR
17:59 34.2 °C 13.7 °C 1010.0 hPa ESE 18.5 km/h 18.5 km/h 29 % 0.0 mm 545.0 W/m2 CLR
18:04 34.3 °C 13.7 °C 1010.0 hPa SE 20.4 km/h 20.4 km/h 29 % 0.0 mm 529.0 W/m2 CLR
18:09 34.1 °C 13.5 °C 1010.0 hPa South 25.9 km/h 25.9 km/h 29 % 0.0 mm 517.0 W/m2 CLR
18:14 33.9 °C 13.9 °C 1010.0 hPa ESE 24.1 km/h 24.1 km/h 30 % 0.0 mm 499.0 W/m2 CLR
18:19 33.9 °C 13.9 °C 1010.0 hPa SE 25.9 km/h 25.9 km/h 30 % 0.0 mm 483.0 W/m2 CLR
18:24 33.7 °C 14.2 °C 1010.0 hPa ESE 24.1 km/h 24.1 km/h 31 % 0.0 mm 469.0 W/m2 CLR
18:25 33.7 °C 14.7 °C 1010.0 hPa SE 22.5 km/h 22.5 km/h 32 % 0.0 mm 468.0 W/m2 CLR
18:30 33.6 °C 15.1 °C 1010.0 hPa ESE 24.1 km/h 24.1 km/h 33 % 0.0 mm 454.0 W/m2 CLR
18:35 33.4 °C 15.4 °C 1010.0 hPa SE 25.9 km/h 25.9 km/h 34 % 0.0 mm 438.0 W/m2 CLR
18:36 33.4 °C 15.4 °C 1010.0 hPa SE 22.2 km/h 22.2 km/h 34 % 0.0 mm 436.0 W/m2 CLR
18:41 33.4 °C 15.4 °C 1010.0 hPa SE 22.2 km/h 22.2 km/h 34 % 0.0 mm 422.0 W/m2 CLR
18:46 33.5 °C 15.9 °C 1010.0 hPa SE 20.4 km/h 20.4 km/h 35 % 0.0 mm 408.0 W/m2 CLR
18:51 33.5 °C 15.5 °C 1010.0 hPa SSE 18.5 km/h 18.5 km/h 34 % 0.0 mm 394.0 W/m2 CLR
18:56 33.6 °C 15.6 °C 1010.0 hPa SE 16.7 km/h 16.7 km/h 34 % 0.0 mm 376.0 W/m2 CLR
19:01 33.4 °C 14.9 °C 1010.0 hPa ESE 19.3 km/h 19.3 km/h 33 % 0.0 mm 360.0 W/m2 CLR
19:06 33.4 °C 14.9 °C 1010.0 hPa SE 24.1 km/h 24.1 km/h 33 % 0.0 mm 345.0 W/m2 CLR
19:11 33.1 °C 15.2 °C 1010.0 hPa SSE 18.5 km/h 18.5 km/h 34 % 0.0 mm 332.0 W/m2 CLR
19:16 33.1 °C 15.1 °C 1010.0 hPa SE 18.5 km/h 18.5 km/h 34 % 0.0 mm 313.0 W/m2 CLR
19:21 32.9 °C 15.0 °C 1010.0 hPa SE 19.3 km/h 19.3 km/h 34 % 0.0 mm 299.0 W/m2 CLR
19:26 32.8 °C 14.9 °C 1010.0 hPa SE 20.4 km/h 20.4 km/h 34 % 0.0 mm 285.0 W/m2 CLR
19:31 32.7 °C 15.3 °C 1010.0 hPa ESE 20.4 km/h 20.4 km/h 35 % 0.0 mm 271.0 W/m2 CLR
19:36 32.6 °C 15.2 °C 1010.0 hPa SE 22.2 km/h 22.2 km/h 35 % 0.0 mm 257.0 W/m2 CLR
19:41 32.4 °C 15.0 °C 1010.0 hPa SSE 24.1 km/h 24.1 km/h 35 % 0.0 mm 239.0 W/m2 CLR
19:46 32.3 °C 14.9 °C 1010.0 hPa SE 25.9 km/h 25.9 km/h 35 % 0.0 mm 223.0 W/m2 CLR
19:51 32.2 °C 15.2 °C 1010.0 hPa SE 27.8 km/h 27.8 km/h 36 % 0.0 mm 209.0 W/m2 CLR
19:56 32.1 °C 14.7 °C 1010.0 hPa SE 19.3 km/h 19.3 km/h 35 % 0.0 mm 193.0 W/m2 CLR
20:01 32.0 °C 15.1 °C 1010.4 hPa SSE 25.7 km/h 25.7 km/h 36 % 0.0 mm 174.0 W/m2 CLR
20:06 31.9 °C 14.9 °C 1010.4 hPa SE 24.1 km/h 24.1 km/h 36 % 0.0 mm 158.0 W/m2 CLR
20:11 31.7 °C 14.4 °C 1010.4 hPa SE 20.4 km/h 20.4 km/h 35 % 0.0 mm 142.0 W/m2 CLR
20:16 31.5 °C 14.2 °C 1010.4 hPa SSE 27.8 km/h 27.8 km/h 35 % 0.0 mm 127.0 W/m2 CLR
20:21 31.3 °C 14.1 °C 1010.4 hPa SSE 20.4 km/h 20.4 km/h 35 % 0.0 mm 113.0 W/m2 CLR
20:26 31.3 °C 14.0 °C 1010.4 hPa SSE 18.5 km/h 18.5 km/h 35 % 0.0 mm 97.0 W/m2 CLR
20:31 31.2 °C 14.3 °C 1010.4 hPa SE 18.5 km/h 18.5 km/h 36 % 0.0 mm 83.0 W/m2 CLR
20:36 31.0 °C 14.2 °C 1010.4 hPa SE 18.5 km/h 18.5 km/h 36 % 0.0 mm 72.0 W/m2 FEW
20:41 30.8 °C 14.1 °C 1010.0 hPa SE 20.9 km/h 20.9 km/h 36 % 0.0 mm 60.0 W/m2 SCT
20:46 30.7 °C 13.9 °C 1010.0 hPa SSE 16.7 km/h 16.7 km/h 36 % 0.0 mm 33.0 W/m2 BKN
20:51 30.6 °C 13.8 °C 1010.0 hPa SE 18.5 km/h 18.5 km/h 36 % 0.0 mm 37.0 W/m2 BKN
20:57 30.5 °C 13.3 °C 1010.0 hPa SSE 22.2 km/h 22.2 km/h 35 % 0.0 mm 26.0 W/m2 BKN
21:02 30.3 °C 13.6 °C 1010.0 hPa SE 22.5 km/h 22.5 km/h 36 % 0.0 mm 21.0 W/m2 BKN
21:07 30.2 °C 13.4 °C 1010.0 hPa SSE 16.7 km/h 16.7 km/h 36 % 0.0 mm 18.0 W/m2 BKN
21:12 30.1 °C 13.3 °C 1010.0 hPa South 18.5 km/h 18.5 km/h 36 % 0.0 mm 12.0 W/m2 BKN
21:17 29.9 °C 13.2 °C 1010.4 hPa South 18.5 km/h 18.5 km/h 36 % 0.0 mm 9.0 W/m2 BKN
21:22 29.8 °C 11.8 °C 1010.4 hPa SSE 14.8 km/h 14.8 km/h 33 % 0.0 mm 7.0 W/m2 BKN
21:27 29.7 °C 11.3 °C 1010.4 hPa SSE 14.8 km/h 14.8 km/h 32 % 0.0 mm 5.0 W/m2 OVC
21:32 29.6 °C 11.2 °C 1010.4 hPa SSE 20.4 km/h 20.4 km/h 32 % 0.0 mm 0.0 W/m2 OVC
21:37 29.5 °C 11.1 °C 1010.4 hPa South 14.8 km/h 14.8 km/h 32 % 0.0 mm 0.0 W/m2 OVC
21:42 29.3 °C 10.9 °C 1010.4 hPa South 24.1 km/h 24.1 km/h 32 % 0.0 mm 0.0 W/m2 OVC
21:47 29.1 °C 10.7 °C 1010.4 hPa South 25.9 km/h 25.9 km/h 32 % 0.0 mm 0.0 W/m2 CLR
21:52 29.0 °C 10.6 °C 1010.4 hPa South 27.8 km/h 27.8 km/h 32 % 0.0 mm 0.0 W/m2 CLR
21:57 28.9 °C 11.0 °C 1010.4 hPa South 22.2 km/h 22.2 km/h 33 % 0.0 mm 0.0 W/m2 CLR
22:02 28.8 °C 10.9 °C 1010.7 hPa SSW 11.1 km/h 11.1 km/h 33 % 0.0 mm 0.0 W/m2 CLR
22:07 28.7 °C 10.8 °C 1010.7 hPa South 13.0 km/h 13.0 km/h 33 % 0.0 mm 0.0 W/m2 CLR
22:12 28.6 °C 10.8 °C 1010.7 hPa South 18.5 km/h 18.5 km/h 33 % 0.0 mm 0.0 W/m2 CLR
22:17 28.6 °C 10.8 °C 1010.7 hPa South 19.3 km/h 19.3 km/h 33 % 0.0 mm 0.0 W/m2 CLR
22:22 28.6 °C 10.7 °C 1010.7 hPa South 16.7 km/h 16.7 km/h 33 % 0.0 mm 0.0 W/m2 CLR
22:27 28.4 °C 10.6 °C 1011.1 hPa South 18.5 km/h 18.5 km/h 33 % 0.0 mm 0.0 W/m2 CLR
22:32 28.4 °C 10.6 °C 1011.1 hPa South 14.8 km/h 14.8 km/h 33 % 0.0 mm 0.0 W/m2 CLR
22:37 28.3 °C 10.5 °C 1010.7 hPa SSW 11.1 km/h 11.1 km/h 33 % 0.0 mm 0.0 W/m2 CLR
22:42 28.2 °C 10.4 °C 1011.1 hPa SSW 11.3 km/h 11.3 km/h 33 % 0.0 mm 0.0 W/m2 CLR
22:47 28.1 °C 10.3 °C 1011.1 hPa Calm     33 % 0.0 mm 0.0 W/m2 CLR
22:52 28.0 °C 9.8 °C 1011.1 hPa Calm     32 % 0.0 mm 0.0 W/m2 CLR
22:57 27.9 °C 10.1 °C 1011.1 hPa Calm     33 % 0.0 mm 0.0 W/m2 CLR
23:02 27.8 °C 9.6 °C 1011.1 hPa South 8.0 km/h 8.0 km/h 32 % 0.0 mm 0.0 W/m2 CLR
23:08 27.7 °C 9.5 °C 1011.1 hPa SSW 3.7 km/h 3.7 km/h 32 % 0.0 mm 0.0 W/m2 CLR
23:13 27.6 °C 9.4 °C 1011.1 hPa Calm     32 % 0.0 mm 0.0 W/m2 CLR
23:18 27.5 °C 9.3 °C 1011.4 hPa Calm     32 % 0.0 mm 0.0 W/m2 CLR
23:23 27.4 °C 9.7 °C 1011.4 hPa Calm     33 % 0.0 mm 0.0 W/m2 CLR
23:28 27.3 °C 9.1 °C 1011.4 hPa Calm     32 % 0.0 mm 0.0 W/m2 CLR
23:33 27.1 °C 9.0 °C 1011.4 hPa Calm     32 % 0.0 mm 0.0 W/m2 CLR
23:38 27.0 °C 8.9 °C 1011.4 hPa Calm     32 % 0.0 mm 0.0 W/m2 CLR
23:43 26.8 °C 8.7 °C 1011.4 hPa Calm     32 % 0.0 mm 0.0 W/m2 CLR
23:48 26.7 °C 9.1 °C 1011.4 hPa Calm     33 % 0.0 mm 0.0 W/m2 CLR
23:53 26.5 °C 8.9 °C 1011.4 hPa Calm     33 % 0.0 mm 0.0 W/m2 CLR
23:58 26.3 °C 10.1 °C 1011.4 hPa Calm     36 % 0.0 mm 0.0 W/m2 CLR
Lo Temps de Massalio
Compliments of Weather Underground - 1.25 mb